TimeCST,TemperatureF,Dew PointF,Humidity,Sea Level PressureIn,VisibilityMPH,Wind Direction,Wind SpeedMPH,Gust SpeedMPH,PrecipitationIn,Events,Conditions,WindDirDegrees,DateUTC
12:56 AM,21.0,5.0,50,30.34,10.0,SE,11.5,-,N/A,,Partly Cloudy,140,2013-01-25 06:56:00
1:56 AM,22.1,5.0,48,30.30,10.0,SE,13.8,-,N/A,,Overcast,140,2013-01-25 07:56:00
2:56 AM,22.1,5.0,48,30.26,10.0,SE,13.8,-,N/A,,Overcast,140,2013-01-25 08:56:00
3:56 AM,22.1,6.1,50,30.26,6.0,SSE,9.2,-,0.00,Snow,Light Snow,150,2013-01-25 09:56:00
4:03 AM,21.2,6.8,54,30.18,3.0,SSE,9.2,-,0.00,Snow,Light Snow,150,2013-01-25 10:03:00
4:11 AM,21.2,8.6,58,30.19,2.0,SSE,9.2,-,0.00,Snow,Light Snow,160,2013-01-25 10:11:00
4:29 AM,19.4,12.2,74,30.18,1.8,SSE,12.7,-,0.00,Snow,Light Snow,160,2013-01-25 10:29:00
4:36 AM,19.4,14.0,80,30.18,1.8,SSE,10.4,-,0.00,Snow,Light Snow,160,2013-01-25 10:36:00
4:56 AM,19.0,15.1,85,30.24,1.8,SSE,9.2,-,0.00,Snow,Light Snow,160,2013-01-25 10:56:00
5:04 AM,19.4,15.8,86,30.16,1.8,SSE,12.7,-,0.00,Snow,Light Snow,160,2013-01-25 11:04:00
5:12 AM,19.4,15.8,86,30.15,2.5,SSE,11.5,-,0.00,Snow,Light Snow,160,2013-01-25 11:12:00
5:18 AM,19.4,15.8,86,30.15,3.0,SSE,10.4,-,0.00,Snow,Light Snow,160,2013-01-25 11:18:00
5:30 AM,19.4,15.8,86,30.14,6.0,SSE,10.4,-,0.00,Snow,Light Snow,160,2013-01-25 11:30:00
6:56 AM,20.1,16.2,85,30.22,10.0,South,9.2,-,N/A,,Overcast,190,2013-01-25 12:56:00
7:56 AM,20.1,17.1,88,30.19,7.0,South,11.5,-,N/A,,Overcast,190,2013-01-25 13:56:00
8:56 AM,21.0,18.1,89,30.18,10.0,South,10.4,-,N/A,,Overcast,190,2013-01-25 14:56:00
9:56 AM,24.1,17.1,75,30.18,10.0,SW,13.8,-,N/A,,Overcast,220,2013-01-25 15:56:00
10:56 AM,27.1,18.1,69,30.16,10.0,WSW,11.5,-,N/A,,Overcast,240,2013-01-25 16:56:00
11:56 AM,29.1,18.1,64,30.13,10.0,WSW,11.5,-,N/A,,Overcast,250,2013-01-25 17:56:00
11:58 AM,28.4,17.6,64,30.07,10.0,WSW,12.7,-,N/A,,Overcast,250,2013-01-25 17:58:00
12:14 PM,30.2,19.4,64,30.05,10.0,SW,15.0,23.0,N/A,,Scattered Clouds,230,2013-01-25 18:14:00
12:56 PM,32.0,19.0,59,30.09,10.0,WSW,16.1,-,N/A,,Clear,250,2013-01-25 18:56:00
1:56 PM,32.9,19.0,57,30.07,10.0,WSW,13.8,23.0,N/A,,Clear,250,2013-01-25 19:56:00
2:56 PM,34.0,18.1,52,30.08,10.0,West,15.0,26.5,N/A,,Clear,260,2013-01-25 20:56:00
3:56 PM,34.9,18.1,51,30.07,10.0,West,19.6,25.3,N/A,,Clear,260,2013-01-25 21:56:00
4:56 PM,34.0,19.0,54,30.09,6.0,West,16.1,-,N/A,,Haze,260,2013-01-25 22:56:00
5:56 PM,32.9,19.0,57,30.11,10.0,West,11.5,-,N/A,,Clear,260,2013-01-25 23:56:00
6:56 PM,31.1,19.0,61,30.14,10.0,West,10.4,-,N/A,,Clear,270,2013-01-26 00:56:00
7:56 PM,30.0,19.0,64,30.15,10.0,WNW,12.7,-,N/A,,Clear,300,2013-01-26 01:56:00
8:56 PM,26.1,18.1,72,30.17,10.0,NW,8.1,-,N/A,,Clear,310,2013-01-26 02:56:00
9:56 PM,26.1,19.0,75,30.19,10.0,NW,9.2,-,N/A,,Clear,310,2013-01-26 03:56:00
10:56 PM,26.1,17.1,69,30.23,10.0,NW,15.0,21.9,N/A,,Mostly Cloudy,320,2013-01-26 04:56:00
11:56 PM,22.1,10.0,60,30.25,10.0,NNW,15.0,-,N/A,,Clear,330,2013-01-26 05:56:00